Station Historical Data
Daily Summary for September 4, 2017 Units:  English    Metric   Both
« Previous Day
Next Day »
Daily Weekly Monthly Yearly Custom
  High: Low: Average:
Temperature: 80.7 °F 61.2 °F 71 °F
Dew Point: 65.7 °F 54.7 °F 59.5 °F
Humidity: 89% 50% 69%
Wind Speed: 19.0mph 0.0mph 6.1mph
Wind Gust: 27.0mph - -
Wind- - SW
Pressure: 29.89 in 29.55 in -
Precipitation: 0.00 in    
Historical Graphs
 
 
Tabular Data for September 4, 2017
Time Temperature Dew Point Pressure Wind Wind Speed Wind Gust Humidity Rainfall Rate (Hourly)
00:04 64.0 °F 56.3 °F 29.89 in West 2.0 mph 9.0 mph 76% 0.00 in
00:09 64.0 °F 56.3 °F 29.88 in Calm   5.0 mph 76% 0.00 in
00:14 64.0 °F 56.6 °F 29.88 in WSW 4.0 mph 7.0 mph 77% 0.00 in
00:19 64.2 °F 56.8 °F 29.88 in WSW 2.0 mph 7.0 mph 77% 0.00 in
00:24 64.3 °F 56.9 °F 29.88 in WSW 2.0 mph 5.0 mph 77% 0.00 in
00:29 64.7 °F 57.3 °F 29.88 in WSW 4.0 mph 9.0 mph 77% 0.00 in
00:34 65.1 °F 58.1 °F 29.88 in West 7.0 mph 9.0 mph 78% 0.00 in
00:39 65.5 °F 58.1 °F 29.88 in SW 9.0 mph 10.0 mph 77% 0.00 in
00:44 65.8 °F 58.4 °F 29.88 in WSW 3.0 mph 11.0 mph 77% 0.00 in
00:49 65.9 °F 58.5 °F 29.88 in WSW 5.0 mph 12.0 mph 77% 0.00 in
00:54 65.9 °F 58.5 °F 29.88 in WSW 5.0 mph 12.0 mph 77% 0.00 in
00:59 66.2 °F 58.8 °F 29.88 in WSW 5.0 mph 10.0 mph 77% 0.00 in
01:04 66.4 °F 59.0 °F 29.88 in WSW 5.0 mph 14.0 mph 77% 0.00 in
01:09 66.4 °F 59.0 °F 29.88 in WSW 5.0 mph 14.0 mph 77% 0.00 in
01:14 66.2 °F 59.1 °F 29.88 in WSW 3.0 mph 11.0 mph 78% 0.00 in
01:19 66.2 °F 59.1 °F 29.88 in WSW 8.0 mph 9.0 mph 78% 0.00 in
01:24 66.2 °F 59.1 °F 29.88 in SW 8.0 mph 9.0 mph 78% 0.00 in
01:29 66.2 °F 59.1 °F 29.88 in WSW 10.0 mph 10.0 mph 78% 0.00 in
01:34 66.2 °F 59.1 °F 29.88 in SW 6.0 mph 12.0 mph 78% 0.00 in
01:39 65.5 °F 59.2 °F 29.87 in SSW 4.0 mph 8.0 mph 80% 0.00 in
01:44 64.8 °F 59.2 °F 29.87 in South 1.0 mph 7.0 mph 82% 0.00 in
01:49 64.4 °F 59.1 °F 29.87 in SSW 3.0 mph 8.0 mph 83% 0.00 in
01:54 64.2 °F 59.3 °F 29.87 in SSW 3.0 mph 10.0 mph 84% 0.00 in
01:59 64.2 °F 59.3 °F 29.87 in SSW 4.0 mph 10.0 mph 84% 0.00 in
02:04 64.2 °F 59.3 °F 29.87 in SSW 4.0 mph 10.0 mph 84% 0.00 in
02:09 64.2 °F 59.3 °F 29.87 in SW 4.0 mph 10.0 mph 84% 0.00 in
02:14 64.2 °F 59.6 °F 29.87 in SW 4.0 mph 9.0 mph 85% 0.00 in
02:19 64.3 °F 59.7 °F 29.87 in SW 1.0 mph 7.0 mph 85% 0.00 in
02:24 64.3 °F 59.7 °F 29.87 in SW 2.0 mph 7.0 mph 85% 0.00 in
02:29 64.3 °F 59.7 °F 29.87 in SW 3.0 mph 8.0 mph 85% 0.00 in
02:34 64.1 °F 59.5 °F 29.87 in SW 4.0 mph 9.0 mph 85% 0.00 in
02:39 63.9 °F 59.3 °F 29.87 in SSW 4.0 mph 9.0 mph 85% 0.00 in
02:44 63.7 °F 59.1 °F 29.87 in SW 1.0 mph 9.0 mph 85% 0.00 in
02:49 63.4 °F 58.8 °F 29.87 in SW 1.0 mph 6.0 mph 85% 0.00 in
02:54 63.2 °F 58.6 °F 29.87 in SW 4.0 mph 9.0 mph 85% 0.00 in
02:59 62.9 °F 58.3 °F 29.87 in SW 3.0 mph 9.0 mph 85% 0.00 in
03:04 62.7 °F 58.1 °F 29.87 in SSW 3.0 mph 7.0 mph 85% 0.00 in
03:09 62.6 °F 58.0 °F 29.87 in SSW 3.0 mph 9.0 mph 85% 0.00 in
03:14 62.5 °F 57.9 °F 29.87 in SSW 3.0 mph 9.0 mph 85% 0.00 in
03:19 62.5 °F 57.6 °F 29.86 in SW 2.0 mph 8.0 mph 84% 0.00 in
03:24 62.4 °F 57.5 °F 29.86 in SW 1.0 mph 8.0 mph 84% 0.00 in
03:29 62.3 °F 57.4 °F 29.86 in SSW 1.0 mph 6.0 mph 84% 0.00 in
03:34 62.1 °F 57.2 °F 29.86 in South 3.0 mph 6.0 mph 84% 0.00 in
03:39 62.2 °F 57.0 °F 29.87 in SW 5.0 mph 7.0 mph 83% 0.00 in
03:44 62.1 °F 56.5 °F 29.87 in SW 3.0 mph 5.0 mph 82% 0.00 in
03:49 62.1 °F 56.5 °F 29.86 in Calm   6.0 mph 82% 0.00 in
03:54 62.0 °F 56.1 °F 29.86 in SW 3.0 mph 6.0 mph 81% 0.00 in
03:59 62.0 °F 56.1 °F 29.86 in SW 2.0 mph 4.0 mph 81% 0.00 in
04:04 62.1 °F 56.2 °F 29.86 in SW 3.0 mph 6.0 mph 81% 0.00 in
04:09 62.2 °F 56.3 °F 29.86 in SW 3.0 mph 7.0 mph 81% 0.00 in
04:14 62.3 °F 56.0 °F 29.86 in SW 3.0 mph 7.0 mph 80% 0.00 in
04:19 62.5 °F 56.2 °F 29.86 in SW 3.0 mph 7.0 mph 80% 0.00 in
04:24 62.6 °F 56.0 °F 29.86 in SW 3.0 mph 8.0 mph 79% 0.00 in
04:29 62.9 °F 56.3 °F 29.86 in SW 4.0 mph 8.0 mph 79% 0.00 in
04:34 62.9 °F 56.3 °F 29.86 in SW 2.0 mph 7.0 mph 79% 0.00 in
04:39 63.0 °F 56.0 °F 29.86 in SW 2.0 mph 6.0 mph 78% 0.00 in
04:44 63.0 °F 56.0 °F 29.86 in SSW 2.0 mph 9.0 mph 78% 0.00 in
04:49 62.9 °F 55.6 °F 29.86 in WSW 4.0 mph 7.0 mph 77% 0.00 in
04:54 63.0 °F 55.7 °F 29.86 in SSW 2.0 mph 8.0 mph 77% 0.00 in
04:59 63.1 °F 55.4 °F 29.86 in SSW 2.0 mph 8.0 mph 76% 0.00 in
05:04 62.9 °F 55.2 °F 29.86 in SW 3.0 mph 8.0 mph 76% 0.00 in
05:09 62.6 °F 54.9 °F 29.85 in SW 3.0 mph 6.0 mph 76% 0.00 in
05:14 62.6 °F 54.9 °F 29.85 in SW 1.0 mph 5.0 mph 76% 0.00 in
05:19 62.3 °F 55.0 °F 29.85 in SSW 3.0 mph 7.0 mph 77% 0.00 in
05:24 62.1 °F 54.8 °F 29.85 in WSW 2.0 mph 6.0 mph 77% 0.00 in
05:29 61.8 °F 54.9 °F 29.85 in SSW 2.0 mph 3.0 mph 78% 0.00 in
05:34 61.7 °F 54.8 °F 29.85 in SW 1.0 mph 7.0 mph 78% 0.00 in
05:39 61.6 °F 54.7 °F 29.85 in SSW 2.0 mph 7.0 mph 78% 0.00 in
05:44 61.4 °F 54.8 °F 29.85 in SSW 2.0 mph 7.0 mph 79% 0.00 in
05:49 61.4 °F 54.8 °F 29.85 in SSW 2.0 mph 7.0 mph 79% 0.00 in
05:54 61.6 °F 55.0 °F 29.85 in SSW 2.0 mph 6.0 mph 79% 0.00 in
05:59 61.8 °F 54.9 °F 29.85 in SSW 3.0 mph 6.0 mph 78% 0.00 in
06:04 61.7 °F 54.8 °F 29.86 in SSW 1.0 mph 4.0 mph 78% 0.00 in
06:09 61.6 °F 55.0 °F 29.86 in SSW 2.0 mph 6.0 mph 79% 0.00 in
06:14 61.5 °F 54.9 °F 29.86 in SSW 3.0 mph 6.0 mph 79% 0.00 in
06:19 61.6 °F 55.0 °F 29.86 in SSW 2.0 mph 5.0 mph 79% 0.00 in
06:24 61.4 °F 54.8 °F 29.86 in SSW 1.0 mph 5.0 mph 79% 0.00 in
06:29 61.3 °F 55.1 °F 29.86 in SSW 1.0 mph 6.0 mph 80% 0.00 in
06:34 61.3 °F 55.1 °F 29.86 in SSW 3.0 mph 8.0 mph 80% 0.00 in
06:39 61.3 °F 55.1 °F 29.86 in SSW 2.0 mph 8.0 mph 80% 0.00 in
06:44 61.2 °F 55.0 °F 29.86 in SSW 3.0 mph 7.0 mph 80% 0.00 in
06:49 61.2 °F 55.0 °F 29.86 in SSW 3.0 mph 7.0 mph 80% 0.00 in
06:54 61.3 °F 55.1 °F 29.86 in SSW 2.0 mph 8.0 mph 80% 0.00 in
06:59 61.5 °F 55.3 °F 29.86 in SSW 3.0 mph 8.0 mph 80% 0.00 in
07:04 61.6 °F 55.4 °F 29.86 in SSW 3.0 mph 7.0 mph 80% 0.00 in
07:09 61.6 °F 55.4 °F 29.86 in SSW 4.0 mph 6.0 mph 80% 0.00 in
07:14 61.7 °F 55.5 °F 29.86 in SSW 3.0 mph 7.0 mph 80% 0.00 in
07:19 61.8 °F 55.6 °F 29.86 in SSW 4.0 mph 6.0 mph 80% 0.00 in
07:24 62.0 °F 55.4 °F 29.86 in SW 2.0 mph 6.0 mph 79% 0.00 in
07:29 62.1 °F 55.5 °F 29.86 in SSW 5.0 mph 7.0 mph 79% 0.00 in
07:34 62.2 °F 55.6 °F 29.86 in SSW 6.0 mph 9.0 mph 79% 0.00 in
07:39 62.4 °F 55.8 °F 29.86 in SSE 3.0 mph 8.0 mph 79% 0.00 in
07:44 62.6 °F 55.6 °F 29.85 in SSW 4.0 mph 8.0 mph 78% 0.00 in
07:49 62.7 °F 55.7 °F 29.86 in SSW 4.0 mph 8.0 mph 78% 0.00 in
07:54 63.0 °F 55.7 °F 29.86 in SSW 4.0 mph 12.0 mph 77% 0.00 in
07:59 63.1 °F 55.8 °F 29.86 in SSW 5.0 mph 12.0 mph 77% 0.00 in
08:04 63.3 °F 55.6 °F 29.86 in SSW 5.0 mph 10.0 mph 76% 0.00 in
08:09 63.5 °F 55.8 °F 29.86 in SSW 4.0 mph 11.0 mph 76% 0.00 in
08:14 63.7 °F 56.0 °F 29.86 in SSW 5.0 mph 11.0 mph 76% 0.00 in
08:19 64.0 °F 55.9 °F 29.86 in SSW 5.0 mph 11.0 mph 75% 0.00 in
08:24 64.4 °F 56.3 °F 29.86 in SW 4.0 mph 9.0 mph 75% 0.00 in
08:29 64.7 °F 56.6 °F 29.86 in South 7.0 mph 9.0 mph 75% 0.00 in
08:34 65.1 °F 56.6 °F 29.86 in SW 3.0 mph 10.0 mph 74% 0.00 in
08:39 65.4 °F 56.1 °F 29.85 in SW 5.0 mph 12.0 mph 72% 0.00 in
08:44 65.8 °F 56.5 °F 29.85 in WSW 8.0 mph 8.0 mph 72% 0.00 in
08:49 66.3 °F 56.6 °F 29.85 in SW 4.0 mph 11.0 mph 71% 0.00 in
08:54 66.5 °F 56.8 °F 29.85 in SSW 3.0 mph 12.0 mph 71% 0.00 in
08:59 66.8 °F 56.7 °F 29.85 in SSW 6.0 mph 12.0 mph 70% 0.00 in
09:04 67.2 °F 56.7 °F 29.85 in SW 2.0 mph 10.0 mph 69% 0.00 in
09:09 67.3 °F 56.8 °F 29.85 in SSW 9.0 mph 13.0 mph 69% 0.00 in
09:14 67.6 °F 57.1 °F 29.85 in West 9.0 mph 14.0 mph 69% 0.00 in
09:19 67.7 °F 56.8 °F 29.85 in SW 5.0 mph 14.0 mph 68% 0.00 in
09:24 68.0 °F 56.6 °F 29.85 in SW 6.0 mph 13.0 mph 67% 0.00 in
09:29 68.3 °F 56.9 °F 29.85 in SW 7.0 mph 14.0 mph 67% 0.00 in
09:34 68.7 °F 57.7 °F 29.85 in SW 7.0 mph 14.0 mph 68% 0.00 in
09:39 69.2 °F 57.4 °F 29.85 in SW 6.0 mph 12.0 mph 66% 0.00 in
09:44 69.5 °F 58.1 °F 29.85 in SSW 6.0 mph 15.0 mph 67% 0.00 in
09:49 69.9 °F 57.6 °F 29.85 in SW 6.0 mph 15.0 mph 65% 0.00 in
09:54 70.1 °F 58.2 °F 29.84 in WSW 7.0 mph 17.0 mph 66% 0.00 in
09:59 70.6 °F 58.3 °F 29.84 in WNW 6.0 mph 12.0 mph 65% 0.00 in
10:04 71.1 °F 58.7 °F 29.84 in SSW 7.0 mph 14.0 mph 65% 0.00 in
10:09 71.1 °F 58.7 °F 29.84 in WSW 9.0 mph 16.0 mph 65% 0.00 in
10:14 71.2 °F 59.3 °F 29.84 in SW 9.0 mph 16.0 mph 66% 0.00 in
10:19 71.6 °F 59.2 °F 29.83 in West 5.0 mph 12.0 mph 65% 0.00 in
10:24 71.7 °F 58.9 °F 29.83 in WSW 7.0 mph 15.0 mph 64% 0.00 in
10:29 71.9 °F 59.9 °F 29.82 in WSW 7.0 mph 15.0 mph 66% 0.00 in
10:34 72.3 °F 60.3 °F 29.82 in WSW 7.0 mph 16.0 mph 66% 0.00 in
10:39 72.7 °F 60.3 °F 29.81 in WSW 6.0 mph 16.0 mph 65% 0.00 in
10:44 72.8 °F 59.9 °F 29.81 in SW 10.0 mph 11.0 mph 64% 0.00 in
10:49 72.8 °F 59.9 °F 29.81 in WSW 6.0 mph 16.0 mph 64% 0.00 in
10:54 73.0 °F 60.1 °F 29.80 in SW 8.0 mph 17.0 mph 64% 0.00 in
10:59 73.0 °F 59.7 °F 29.80 in SW 10.0 mph 18.0 mph 63% 0.00 in
11:04 73.2 °F 60.3 °F 29.80 in West 14.0 mph 19.0 mph 64% 0.00 in
11:09 73.4 °F 60.5 °F 29.80 in WSW 11.0 mph 16.0 mph 64% 0.00 in
11:14 73.4 °F 60.0 °F 29.79 in SW 15.0 mph 22.0 mph 63% 0.00 in
11:19 73.5 °F 60.6 °F 29.80 in WSW 8.0 mph 23.0 mph 64% 0.00 in
11:24 73.8 °F 61.3 °F 29.80 in SW 10.0 mph 23.0 mph 65% 0.00 in
11:29 74.4 °F 61.9 °F 29.80 in SW 8.0 mph 22.0 mph 65% 0.00 in
11:34 74.2 °F 61.2 °F 29.80 in WSW 8.0 mph 15.0 mph 64% 0.00 in
11:39 74.1 °F 60.7 °F 29.79 in WSW 10.0 mph 22.0 mph 63% 0.00 in
11:44 73.9 °F 60.5 °F 29.80 in WSW 11.0 mph 22.0 mph 63% 0.00 in
11:49 73.7 °F 60.3 °F 29.79 in West 12.0 mph 26.0 mph 63% 0.00 in
11:54 74.0 °F 60.2 °F 29.79 in WSW 11.0 mph 26.0 mph 62% 0.00 in
11:59 74.0 °F 59.7 °F 29.79 in WSW 14.0 mph 20.0 mph 61% 0.00 in
12:04 74.3 °F 60.4 °F 29.78 in SSW 8.0 mph 21.0 mph 62% 0.00 in
12:09 74.8 °F 60.0 °F 29.78 in WSW 8.0 mph 21.0 mph 60% 0.00 in
12:14 75.1 °F 59.8 °F 29.78 in SW 9.0 mph 18.0 mph 59% 0.00 in
12:19 75.4 °F 60.1 °F 29.77 in WSW 11.0 mph 19.0 mph 59% 0.00 in
12:24 75.5 °F 59.7 °F 29.77 in SW 8.0 mph 27.0 mph 58% 0.00 in
12:29 75.5 °F 59.2 °F 29.77 in SW 11.0 mph 27.0 mph 57% 0.00 in
12:34 75.7 °F 60.4 °F 29.76 in SW 11.0 mph 26.0 mph 59% 0.00 in
12:39 76.1 °F 58.8 °F 29.76 in SW 10.0 mph 25.0 mph 55% 0.00 in
12:44 76.2 °F 58.9 °F 29.76 in WSW 11.0 mph 25.0 mph 55% 0.00 in
12:49 76.8 °F 58.9 °F 29.76 in WSW 10.0 mph 22.0 mph 54% 0.00 in
12:54 76.7 °F 57.7 °F 29.76 in SW 10.0 mph 25.0 mph 52% 0.00 in
12:59 76.6 °F 58.2 °F 29.76 in WSW 7.0 mph 26.0 mph 53% 0.00 in
13:04 77.0 °F 59.6 °F 29.75 in SW 6.0 mph 17.0 mph 55% 0.00 in
13:09 77.1 °F 58.6 °F 29.75 in SSW 15.0 mph 19.0 mph 53% 0.00 in
13:14 77.0 °F 59.1 °F 29.74 in SW 19.0 mph 26.0 mph 54% 0.00 in
13:19 76.9 °F 59.0 °F 29.74 in South 2.0 mph 25.0 mph 54% 0.00 in
13:24 77.3 °F 58.8 °F 29.73 in SW 15.0 mph 23.0 mph 53% 0.00 in
13:29 77.3 °F 58.8 °F 29.73 in SW 10.0 mph 23.0 mph 53% 0.00 in
13:34 78.0 °F 59.5 °F 29.73 in SW 9.0 mph 20.0 mph 53% 0.00 in
13:39 77.9 °F 58.9 °F 29.73 in SW 9.0 mph 21.0 mph 52% 0.00 in
13:44 77.9 °F 59.4 °F 29.73 in SW 10.0 mph 21.0 mph 53% 0.00 in
13:49 77.8 °F 58.8 °F 29.73 in SW 10.0 mph 21.0 mph 52% 0.00 in
13:54 77.6 °F 58.6 °F 29.73 in SSW 5.0 mph 20.0 mph 52% 0.00 in
13:59 77.9 °F 58.9 °F 29.72 in SW 10.0 mph 20.0 mph 52% 0.00 in
14:04 77.9 °F 59.4 °F 29.72 in SW 11.0 mph 22.0 mph 53% 0.00 in
14:09 78.1 °F 59.6 °F 29.72 in SW 10.0 mph 23.0 mph 53% 0.00 in
14:14 78.3 °F 59.2 °F 29.72 in SSW 6.0 mph 19.0 mph 52% 0.00 in
14:19 78.6 °F 59.5 °F 29.71 in SSW 9.0 mph 19.0 mph 52% 0.00 in
14:24 78.5 °F 59.4 °F 29.71 in South 12.0 mph 18.0 mph 52% 0.00 in
14:29 79.0 °F 60.9 °F 29.71 in SW 9.0 mph 18.0 mph 54% 0.00 in
14:34 79.0 °F 60.4 °F 29.71 in SW 8.0 mph 18.0 mph 53% 0.00 in
14:39 78.6 °F 60.0 °F 29.71 in SW 10.0 mph 24.0 mph 53% 0.00 in
14:44 78.7 °F 60.7 °F 29.70 in WNW 11.0 mph 19.0 mph 54% 0.00 in
14:49 79.3 °F 60.7 °F 29.70 in SSW 14.0 mph 15.0 mph 53% 0.00 in
14:54 79.3 °F 61.2 °F 29.69 in SW 8.0 mph 15.0 mph 54% 0.00 in
14:59 79.2 °F 60.6 °F 29.69 in SW 9.0 mph 18.0 mph 53% 0.00 in
15:04 78.7 °F 60.7 °F 29.69 in SW 9.0 mph 18.0 mph 54% 0.00 in
15:09 79.0 °F 60.9 °F 29.69 in WSW 11.0 mph 18.0 mph 54% 0.00 in
15:14 79.3 °F 61.2 °F 29.69 in South 9.0 mph 16.0 mph 54% 0.00 in
15:19 79.5 °F 60.9 °F 29.69 in WSW 16.0 mph 17.0 mph 53% 0.00 in
15:24 79.2 °F 61.1 °F 29.68 in WSW 9.0 mph 17.0 mph 54% 0.00 in
15:29 79.1 °F 60.5 °F 29.68 in WSW 9.0 mph 18.0 mph 53% 0.00 in
15:34 79.3 °F 61.2 °F 29.67 in WSW 9.0 mph 21.0 mph 54% 0.00 in
15:39 79.5 °F 61.4 °F 29.67 in WSW 6.0 mph 20.0 mph 54% 0.00 in
15:44 79.3 °F 61.2 °F 29.66 in South 10.0 mph 18.0 mph 54% 0.00 in
15:49 79.3 °F 61.2 °F 29.65 in WSW 4.0 mph 16.0 mph 54% 0.00 in
15:54 79.5 °F 61.9 °F 29.65 in SW 8.0 mph 16.0 mph 55% 0.00 in
15:59 79.4 °F 61.3 °F 29.64 in SW 7.0 mph 20.0 mph 54% 0.00 in
16:04 79.1 °F 61.5 °F 29.64 in SW 8.0 mph 20.0 mph 55% 0.00 in
16:09 79.4 °F 61.8 °F 29.64 in SW 8.0 mph 20.0 mph 55% 0.00 in
16:14 79.3 °F 62.2 °F 29.64 in WSW 10.0 mph 16.0 mph 56% 0.00 in
16:19 79.2 °F 61.6 °F 29.63 in SW 6.0 mph 13.0 mph 55% 0.00 in
16:24 78.9 °F 61.9 °F 29.62 in SW 7.0 mph 16.0 mph 56% 0.00 in
16:29 79.0 °F 62.5 °F 29.62 in SW 7.0 mph 17.0 mph 57% 0.00 in
16:34 79.4 °F 61.8 °F 29.62 in SSW 7.0 mph 11.0 mph 55% 0.00 in
16:39 79.6 °F 62.0 °F 29.61 in WSW 6.0 mph 16.0 mph 55% 0.00 in
16:44 80.1 °F 59.8 °F 29.62 in SSW 8.0 mph 19.0 mph 50% 0.00 in
16:49 80.5 °F 60.1 °F 29.61 in SSW 5.0 mph 16.0 mph 50% 0.00 in
16:54 80.6 °F 60.8 °F 29.61 in SSW 7.0 mph 16.0 mph 51% 0.00 in
16:59 80.6 °F 60.2 °F 29.61 in SSW 7.0 mph 19.0 mph 50% 0.00 in
17:04 80.6 °F 60.2 °F 29.60 in SSW 7.0 mph 19.0 mph 50% 0.00 in
17:09 80.7 °F 60.9 °F 29.61 in SSW 6.0 mph 15.0 mph 51% 0.00 in
17:14 80.2 °F 61.0 °F 29.60 in SSW 7.0 mph 17.0 mph 52% 0.00 in
17:19 80.0 °F 61.3 °F 29.60 in SSW 8.0 mph 17.0 mph 53% 0.00 in
17:24 79.8 °F 61.1 °F 29.60 in South 5.0 mph 18.0 mph 53% 0.00 in
17:29 79.6 °F 60.4 °F 29.60 in South 15.0 mph 23.0 mph 52% 0.00 in
17:34 79.5 °F 60.3 °F 29.60 in SSE 5.0 mph 27.0 mph 52% 0.00 in
17:39 79.6 °F 61.0 °F 29.60 in SW 11.0 mph 15.0 mph 53% 0.00 in
17:44 79.3 °F 60.7 °F 29.60 in SW 13.0 mph 20.0 mph 53% 0.00 in
17:49 79.3 °F 60.7 °F 29.60 in SSW 10.0 mph 16.0 mph 53% 0.00 in
17:54 79.4 °F 60.8 °F 29.60 in SSW 7.0 mph 17.0 mph 53% 0.00 in
17:59 79.3 °F 60.7 °F 29.59 in SSW 8.0 mph 17.0 mph 53% 0.00 in
18:04 79.1 °F 61.0 °F 29.59 in SSW 8.0 mph 21.0 mph 54% 0.00 in
18:09 79.0 °F 60.9 °F 29.58 in SSW 7.0 mph 21.0 mph 54% 0.00 in
18:14 79.0 °F 60.9 °F 29.58 in SSW 7.0 mph 20.0 mph 54% 0.00 in
18:19 78.9 °F 61.4 °F 29.58 in SSW 7.0 mph 20.0 mph 55% 0.00 in
18:24 78.7 °F 61.2 °F 29.58 in SSW 7.0 mph 18.0 mph 55% 0.00 in
18:29 78.7 °F 61.2 °F 29.58 in SSW 8.0 mph 18.0 mph 55% 0.00 in
18:34 78.5 °F 61.0 °F 29.58 in SSW 9.0 mph 18.0 mph 55% 0.00 in
18:39 78.5 °F 61.5 °F 29.57 in SSW 7.0 mph 16.0 mph 56% 0.00 in
18:44 78.4 °F 61.4 °F 29.57 in South 15.0 mph 20.0 mph 56% 0.00 in
18:49 78.3 °F 61.3 °F 29.56 in SSW 4.0 mph 18.0 mph 56% 0.00 in
18:54 78.1 °F 61.1 °F 29.57 in SSW 8.0 mph 22.0 mph 56% 0.00 in
18:59 78.0 °F 61.5 °F 29.57 in SSW 7.0 mph 22.0 mph 57% 0.00 in
19:04 77.9 °F 61.4 °F 29.56 in SSW 4.0 mph 15.0 mph 57% 0.00 in
19:09 77.7 °F 61.3 °F 29.57 in SW 6.0 mph 15.0 mph 57% 0.00 in
19:14 77.6 °F 61.7 °F 29.57 in SSW 12.0 mph 22.0 mph 58% 0.00 in
19:19 77.6 °F 61.7 °F 29.57 in South 5.0 mph 17.0 mph 58% 0.00 in
19:24 77.4 °F 61.9 °F 29.57 in SSW 7.0 mph 17.0 mph 59% 0.00 in
19:29 77.3 °F 61.9 °F 29.57 in SSW 7.0 mph 15.0 mph 59% 0.00 in
19:34 77.2 °F 61.8 °F 29.57 in SSW 7.0 mph 19.0 mph 59% 0.00 in
19:39 77.1 °F 62.1 °F 29.56 in SSW 7.0 mph 19.0 mph 60% 0.00 in
19:44 77.0 °F 62.0 °F 29.57 in SSW 7.0 mph 16.0 mph 60% 0.00 in
19:49 76.8 °F 62.3 °F 29.57 in South 3.0 mph 16.0 mph 61% 0.00 in
19:54 76.9 °F 62.4 °F 29.57 in South 10.0 mph 18.0 mph 61% 0.00 in
19:59 76.9 °F 62.4 °F 29.57 in SSW 8.0 mph 17.0 mph 61% 0.00 in
20:04 76.9 °F 62.4 °F 29.57 in West 5.0 mph 15.0 mph 61% 0.00 in
20:09 76.8 °F 62.3 °F 29.57 in South 11.0 mph 15.0 mph 61% 0.00 in
20:14 76.8 °F 62.3 °F 29.57 in SW 9.0 mph 18.0 mph 61% 0.00 in
20:19 76.9 °F 62.4 °F 29.57 in South 10.0 mph 20.0 mph 61% 0.00 in
20:24 76.9 °F 62.4 °F 29.57 in SSW 8.0 mph 20.0 mph 61% 0.00 in
20:29 77.0 °F 62.5 °F 29.57 in SSW 8.0 mph 18.0 mph 61% 0.00 in
20:34 76.8 °F 62.3 °F 29.56 in SSW 8.0 mph 16.0 mph 61% 0.00 in
20:39 76.9 °F 62.4 °F 29.56 in SSW 8.0 mph 18.0 mph 61% 0.00 in
20:44 77.0 °F 62.5 °F 29.56 in SSW 10.0 mph 13.0 mph 61% 0.00 in
20:49 77.1 °F 62.6 °F 29.56 in SSW 7.0 mph 18.0 mph 61% 0.00 in
20:54 77.0 °F 63.0 °F 29.55 in SSW 8.0 mph 18.0 mph 62% 0.00 in
20:59 77.0 °F 62.5 °F 29.56 in SSW 8.0 mph 18.0 mph 61% 0.00 in
21:04 77.0 °F 63.0 °F 29.56 in SSW 8.0 mph 18.0 mph 62% 0.00 in
21:09 77.1 °F 63.1 °F 29.56 in SSW 8.0 mph 19.0 mph 62% 0.00 in
21:14 77.3 °F 62.8 °F 29.56 in SSW 4.0 mph 15.0 mph 61% 0.00 in
21:19 77.3 °F 63.3 °F 29.56 in South 10.0 mph 14.0 mph 62% 0.00 in
21:24 77.3 °F 63.7 °F 29.57 in SW 5.0 mph 16.0 mph 63% 0.00 in
21:29 77.1 °F 64.0 °F 29.57 in SSW 8.0 mph 16.0 mph 64% 0.00 in
21:34 76.9 °F 64.2 °F 29.57 in SSW 7.0 mph 16.0 mph 65% 0.00 in
21:39 76.7 °F 64.0 °F 29.57 in SW 7.0 mph 16.0 mph 65% 0.00 in
21:44 76.8 °F 64.1 °F 29.57 in SW 8.0 mph 19.0 mph 65% 0.00 in
21:49 76.9 °F 64.7 °F 29.56 in SSW 7.0 mph 18.0 mph 66% 0.00 in
21:54 76.7 °F 65.3 °F 29.55 in SSW 9.0 mph 18.0 mph 68% 0.00 in
21:59 76.0 °F 65.5 °F 29.56 in SSW 9.0 mph 18.0 mph 70% 0.01 in
22:04 75.1 °F 65.5 °F 29.57 in SW 7.0 mph 18.0 mph 72% 0.02 in
22:09 74.1 °F 65.7 °F 29.57 in SW 6.0 mph 18.0 mph 75% 0.06 in
22:14 72.7 °F 65.4 °F 29.61 in West 7.0 mph 18.0 mph 78% 0.11 in
22:19 71.1 °F 65.3 °F 29.59 in WNW 8.0 mph 22.0 mph 82% 0.37 in
22:24 69.3 °F 63.6 °F 29.59 in SW 6.0 mph 15.0 mph 82% 0.40 in
22:29 68.7 °F 63.7 °F 29.60 in WSW 3.0 mph 9.0 mph 84% 0.41 in
22:34 68.8 °F 64.4 °F 29.61 in WSW 3.0 mph 8.0 mph 86% 0.43 in
22:39 69.1 °F 65.1 °F 29.60 in WNW 3.0 mph 8.0 mph 87% 0.45 in
22:44 69.1 °F 65.1 °F 29.59 in Calm   6.0 mph 87% 0.46 in
22:49 69.1 °F 65.4 °F 29.60 in West 4.0 mph 6.0 mph 88% 0.48 in
22:54 68.9 °F 65.2 °F 29.59 in Calm   6.0 mph 88% 0.49 in
22:59 68.6 °F 64.9 °F 29.59 in West 2.0 mph 7.0 mph 88% 0.49 in
23:04 68.4 °F 64.7 °F 29.60 in WNW 3.0 mph 9.0 mph 88% 0.49 in
23:09 68.2 °F 64.8 °F 29.62 in West 4.0 mph 9.0 mph 89% 0.46 in
23:14 68.1 °F 64.7 °F 29.61 in WSW 2.0 mph 7.0 mph 89% 0.41 in
23:19 68.1 °F 64.7 °F 29.63 in West 7.0 mph 7.0 mph 89% 0.15 in
23:24 67.9 °F 64.5 °F 29.61 in WSW 2.0 mph 13.0 mph 89% 0.16 in
23:25 67.9 °F 64.5 °F 29.61 in SW 5.0 mph 13.0 mph 89% 0.16 in
23:34 67.5 °F 64.1 °F 29.61 in WSW 4.0 mph 9.0 mph 89% 0.15 in
23:39 67.4 °F 64.0 °F 29.60 in WSW 3.0 mph 9.0 mph 89% 0.13 in
23:44 67.3 °F 63.9 °F 29.60 in WSW 3.0 mph 6.0 mph 89% 0.12 in
23:49 67.2 °F 63.8 °F 29.61 in WNW 2.0 mph 5.0 mph 89% 0.11 in
23:54 67.1 °F 63.7 °F 29.61 in Calm   6.0 mph 89% 0.10 in
23:59 67.1 °F 63.7 °F 29.61 in West 3.0 mph 6.0 mph 89% 0.09 in
Buffalo, New York, USA
Compliments of Weather Underground - 2.5 mb